Погода в Новотроицком

Украина / Одесская область     47°31′08″N   30°33′44″E
темп.,
°C
ветер,
м/с
пор.,
м/с
влажн.,
%
обл.,
%
осадки,
мм/ч
давл.,
гПа
погр.,
м
2 марта, вт
вт223:00+1с4784100 0.1 1033418
02:00−1сз3386100 0.1 103381
05:00+1зсз358895 0.0 1031205
08:00+1з468077 0.0 1031261
11:00+6з57650 0.0 1029760
14:00+8з795912 0.0 1026763
17:00+8з6116667 0.0 1024749
20:00+5зсз6147540 0.0 1024417
3 марта, ср
ср323:00+4сз5157888 0.0 1024639
02:00+3ссз5118470 0.0 1026776
05:00+2сз5129072 0.0 1026387
08:00+2ссз6108636 0.0 1029472
11:00+6ссз57600 0.0 1029906
14:00+8ссз45490 0.0 10281121
17:00+7ссз35540 0.0 1027325
20:00+4з126517 0.0 102822
4 марта, чт
чт423:00+2зюз23708 0.0 102726
02:00+1юз34784 0.0 102642
05:00+1юз34770 0.0 102384
08:00+3ююз48740 0.0 1022273
11:00+8юз69640 0.0 1019498
14:00+12юз69530 0.0 1016844
17:00+10юз37620 0.0 1014203
20:00+7зюз34720 0.0 101449
5 марта, пт
пт523:00+5зюз22690 0.0 101322
02:00+5ююз226711 0.0 101222
05:00+4ю2279100 0.0 101122
08:00+4ю3585100 0.0 1011143
11:00+10ююз466284 0.0 1010494
14:00+13з464674 0.0 1008956
17:00+12зсз48510 0.0 1008250
20:00+8зсз236136 0.0 101026
6 марта, сб
сб623:00+5с61085100 0.0 1012425
02:00+3с71095100 0.1 1014438
05:00+1с71180100 0.2 1017799
08:00+1с7116398 0.2 1020920
11:00+2с81144100 0.0 10211169
14:00+3с71033100 0.0 10221845
17:00+2ссз6103768 0.0 10232207
20:000сз495248 0.0 1026306